Regional Weather Roundup
Issued by NWS

Home | Current Version | Previous Version | Text Only | Print | Product List | Glossary Off
Versions: 1 2 3 4 5 6 7 8 9 10 11 12 13 14 15 16 17 18 19 20 21 22 23 24 25 26 27 28

000
ASUS45 KSLC 182110
RWRUT

UTAH REGIONAL WEATHER ROUNDUP
NATIONAL WEATHER SERVICE SALT LAKE CITY UT
200 PM MST SAT FEB 18 2017

UTZ001>011-023>025-182200-

NORTHERN UTAH

CITY           SKY/WX    TMP DP  RH WIND       PRES   REMARKS
BRIGHAM CITY     N/A     50  36  59 CALM      29.61F
HILL AFB       MOSUNNY   51  32  48 S15       29.60F
LOGAN          CLOUDY    48  37  65 NW5       29.62F
OGDEN          CLOUDY    53  34  48 S14       29.59F
SALT LAKE CITY CLOUDY    55  33  43 S12       29.59F
TOOELE VALLEY  LGT RAIN  54  36  50 S8        29.59F
WENDOVER       CLOUDY    46  34  61 CALM      29.58F
HEBER CITY     CLOUDY    46  30  53 CALM      29.63F
WEST JORDAN    CLOUDY    57  43  59 S15       29.61F

$$

UTZ011>015-024>027-182200-

CENTRAL/NORTHEAST UTAH

CITY           SKY/WX    TMP DP  RH WIND       PRES   REMARKS
PROVO AIRPORT  CLOUDY    54  33  45 S9        29.61F
MOAB/CANYONLAN CLOUDY    47  42  83 N3        29.73F
DELTA          CLOUDY    52  32  46 NE3       29.59F
PRICE          LGT RAIN  38  38 100 E7        29.73F WCI  33
RICHFIELD      CLOUDY    50  32  50 W7        29.63F
ROOSEVELT      MIX PCPN  41  37  87 NE5       29.77F
VERNAL         LGT RAIN  40  38  93 N5        29.75F FOG

$$

UTZ013>016-019>022-027-182200-

SOUTHERN UTAH

CITY           SKY/WX    TMP DP  RH WIND       PRES   REMARKS
BRYCE CANYON   SNOW      33  32  96 SE14      29.69F VSB 1/2 WCI  23
CEDAR CITY     CLOUDY    50  32  50 VRB3      29.58F
MILFORD        LGT RAIN  49  37  63 SW3       29.59F
ST GEORGE      CLOUDY    50  47  89 N7        29.61F
HANKSVILLE     CLOUDY    45  39  81 SE13      29.74F
KANAB          CLOUDY    46  41  81 E12       29.69F
BLANDING       CLOUDY    47  37  69 E6        29.80F

$$

REGIONAL REPORTS     COLORADO/ARIZONA

CITY           SKY/WX    TMP DP  RH WIND       PRES   REMARKS
CRAIG, CO      CLOUDY    49  30  48 E3        29.73F
GRAND JUNCTION LGT RAIN  47  40  76 NW10      29.75F
RIFLE, CO      CLOUDY    55  32  41 W20       29.71F
MONTROSE, CO   CLOUDY    54  29  38 E3        29.73F
CORTEZ, CO     CLOUDY    56  31  38 S15G23    29.73F
COLORADO CITY    N/A     50  37  62 E13       29.66F
PAGE, AZ       LGT RAIN  48  39  71 NW7       29.67F
GRAND CANYON   RAIN      38  36  92 SE6       29.68F FOG     WCI  33
KINGMAN, AZ    CLOUDY    53  33  46 SE22G29   29.55F
FLAGSTAFF, AZ  CLOUDY    38  36  92 S9        29.68F WCI  31

$$

REGIONAL REPORTS    NEVADA/IDAHO/WYOMING

CITY           SKY/WX    TMP DP  RH WIND       PRES   REMARKS
LAS VEGAS, NV  LGT RAIN  53  48  83 E8        29.52F
ELY, NY        CLOUDY    41  34  76 S21G30    29.56F
ELKO, NV       CLOUDY    48  32  53 S9        29.51F
POCATELLO, ID  CLOUDY    50  34  54 S26G39    29.57F
BURLEY, ID     LGT RAIN  51  33  50 S15G21    29.52F
FORT BRIDGER,    N/A     38  31  76 NE5       29.70F WCI  35
EVANSTON, WY   CLOUDY    38  28  67 E6        29.67F WCI  33
ROCK SPRINGS,  CLOUDY    41  30  65 S23       29.69F
KEMMERER, WY     N/A     39  32  75 NE6       29.69F WCI  35

$$




USA.gov is the U.S. government's official web portal to all federal, state and local government web resources and services.